Regional Weather Roundup
Issued by NWS Cleveland, OH

Home | Current Version | Previous Version | Graphics & Text | Print | Product List | Glossary On
Versions: 1 2 3 4 5 6 7 8 9 10 11 12 13 14 15 16 17 18 19 20 21 22 23 24 25 26 27 28 29 30 31 32 33 34 35 36 37 38 39 40 41 42 43 44 45 46 47 48 49 50
000
ASUS41 KCLE 230410
RWRCLE
OHIO REGIONAL WEATHER ROUNDUP
NATIONAL WEATHER SERVICE CLEVELAND, OH
1100 PM EST SAT NOV 22 2014

NOTE: "FAIR" INDICATES FEW OR NO CLOUDS BELOW 12,000 FEET WITH NO
SIGNIFICANT WEATHER AND/OR OBSTRUCTIONS TO VISIBILITY.

OHZ001>008-015>018-024>027-034-035-043-044-230500-
   NORTHWEST OHIO

CITY           SKY/WX    TMP DP  RH WIND       PRES   REMARKS
DEFIANCE       CLOUDY    51  41  68 SW10      29.98R
FINDLAY        CLOUDY    50  39  66 S14       29.99S
TOLEDO EXPRESS CLOUDY    51  40  65 SW9G18    29.97S
TOLEDO EXEC    CLOUDY    50  39  66 SW10      29.99R
LIMA           CLOUDY    52  37  56 S13       30.00F
$$

OHZ009>014-019>023-028>033-038-089-230500-
   NORTHEAST OHIO

CITY           SKY/WX    TMP DP  RH WIND       PRES   REMARKS
CLE-HOPKINS    CLOUDY    48  35  60 S17       30.04S
CLE-LAKEFRONT  CLOUDY    51  36  56 S20G28    30.00S
CUY CO. ARPT   LGT RAIN  52  37  58 S16G23    30.02S
LORAIN-ELYRIA  CLOUDY    48  37  65 SW13      30.02S
ASHTABULA      CLOUDY    44  33  65 S12       30.03S
AKRON-CANTON   CLOUDY    46  33  60 SW10      30.07R
WOOSTER        CLOUDY   N/A N/A N/A SW12      30.06S
MANSFIELD      CLOUDY    47  37  68 S14       30.04S
YOUNGSTOWN     CLOUDY    47  33  58 SW13      30.05S
$$

OHZ042-051>053-060>062-070>072-077>081-230500-
  SOUTHWEST OHIO

CITY           SKY/WX    TMP DP  RH WIND       PRES   REMARKS
CINC-COVINGTON MOCLDY    47  31  53 S9        30.07S
CINC-LUNKEN    CLOUDY    44  35  70 CALM      30.09S
HAMILTON       CLOUDY    53  33  46 CALM      30.07F
DAYTON         LGT RAIN  52  37  56 S14       30.05S
WRIGHT-PAT AFB CLOUDY    50  38  62 S10       30.05S
DAYTON GENERAL CLOUDY    50  36  58 S12       30.05F
WILMINGTON     CLOUDY    47  32  56 S9        30.08S
$$

OHZ036-037-039>041-045>050-054>059-063>069-073>076-082>088-230500-
  CENTRAL AND SOUTHEAST OHIO

CITY           SKY/WX    TMP DP  RH WIND       PRES   REMARKS
COLUMBUS       CLOUDY    48  32  53 S3        30.07F
OSU AIRPORT    CLOUDY    49  34  56 S8        30.06F
BOLTON FIELD   MIX PCPN  48  36  64 S9        30.06F
RICKENBACK AFB LGT RAIN  46  35  66 S9        30.06F
NEWARK         MOCLDY    44  31  60 CALM      30.07F
MARION         CLOUDY    47  39  74 S12       30.04S
LANCASTER      CLOUDY    50  31  48 S6        30.08F
ZANESVILLE     MOCLDY    46  30  53 S6        30.09F
NEW PHILLY     CLOUDY    49  31  49 S3        30.09F
$$


USA.gov is the U.S. government's official web portal to all federal, state and local government web resources and services.